Regional Weather Roundup
Issued by NWS Little Rock, AR

Home | Current Version | Previous Version | Text Only | Print | Product List | Glossary On
Versions: 1 2 3 4 5 6 7 8 9 10 11 12 13 14 15 16 17 18 19 20 21 22 23 24 25 26 27 28 29 30 31 32 33 34 35 36 37 38 39 40 41 42 43 44 45 46 47 48 49 50
000
ASUS44 KLZK 260305
RWRLZK

WEATHER ROUNDUP FOR ARKANSAS
NATIONAL WEATHER SERVICE LITTLE ROCK AR
900 PM CST SAT FEB 25 2017

NOTE: "FAIR" INDICATES FEW OR NO CLOUDS BELOW 12,000 FEET WITH NO
SIGNIFICANT WEATHER AND/OR OBSTRUCTIONS TO VISIBILITY.

ARZ001-003-010-029-260400-
NORTHWEST ARKANSAS

CITY           SKY/WX    TMP DP  RH WIND       PRES   REMARKS
FAYETTEVILLE   CLEAR     30  21  69 S3        30.10R
FORT SMITH     CLEAR     39  23  52 CALM      30.12R
HARRISON       CLEAR     34  13  41 CALM      30.10R
BENTONVILLE    CLEAR     36  12  38 CALM      30.09S
ROGERS         CLEAR     35  15  44 CALM      30.09S
SILOAM SPGS    CLEAR     34  10  37 SE3       30.09R
HIGHFILL       CLEAR     34  18  52 CALM      30.08S
SPRINGDALE     CLEAR     34  18  51 CALM      30.10S
$$

ARZ004-005-016-260400-
NORTH CENTRAL ARKANSAS

CITY           SKY/WX    TMP DP  RH WIND       PRES   REMARKS
BATESVILLE     CLEAR     36  19  51 CALM      30.16R
FLIPPIN        CLEAR     34  18  51 CALM      30.10R
MTN HOME       CLEAR     36  12  37 CALM      30.11R
$$

ARZ040-041-260400-
WEST CENTRAL ARKANSAS

CITY           SKY/WX    TMP DP  RH WIND       PRES   REMARKS
MENA           CLEAR     36  27  69 CALM      30.11S
MOUNT IDA      CLEAR     36  24  62 CALM      30.09S HAZE
$$

ARZ009-017-025-026-028-260400-
NORTHEAST ARKANSAS

CITY           SKY/WX    TMP DP  RH WIND       PRES   REMARKS
CORNING        CLOUDY    39  23  52 N5        30.16R
JONESBORO      CLEAR     33  26  75 CALM      30.15S
NEWPORT        CLEAR     38  27  64 CALM      30.16R
WALNUT RIDGE   CLEAR     39  18  41 CALM      30.15R
BLYTHEVILLE    CLEAR     37  24  59 S5        30.16R
$$

ARZ022-023-033-042-044-260400-
CENTRAL ARKANSAS

CITY           SKY/WX    TMP DP  RH WIND       PRES   REMARKS
LITTLE ROCK    CLEAR     39  29  67 CALM      30.15R
N LITTLE ROCK    N/A     41  21  44 CALM      30.16S
JACKSONVILLE   CLEAR     36  29  76 CALM      30.14R
SEARCY         CLEAR     34  29  82 CALM      30.17R
HOT SPRINGS    CLEAR     40  24  53 CALM      30.12S
RUSSELLVILLE   CLEAR     34  25  69 E3        30.12S
CLINTON        MOCLDY    32  25  74 CALM      30.15R
$$

ARZ036-260400-
EAST ARKANSAS

CITY           SKY/WX    TMP DP  RH WIND       PRES   REMARKS
WEST MEMPHIS   CLEAR     38  25  59 S3        30.15S
$$

ARZ050-053-066-070-073-260400-
SOUTHWEST ARKANSAS

CITY           SKY/WX    TMP DP  RH WIND       PRES   REMARKS
ARKADELPHIA    FAIR      37  33  85 CALM      30.15R
CAMDEN         CLEAR     36  32  87 CALM      30.15S
TEXARKANA      CLEAR     41  23  48 SE5       30.12S
EL DORADO      CLEAR     38  33  82 CALM      30.14S
DE QUEEN       CLEAR     37  33  85 E3        30.11R
$$

ARZ056-057-069-260400-
SOUTHEAST ARKANSAS

CITY           SKY/WX    TMP DP  RH WIND       PRES   REMARKS
PINE BLUFF     CLEAR     41  34  76 SE3       30.16R
STUTTGART      CLEAR     45  25  45 SE6       30.16S
MONTICELLO     CLEAR     39  31  72 CALM      30.16R

$$





USA.gov is the U.S. government's official web portal to all federal, state and local government web resources and services.